FW8134 Weather Reports


Display with metric or nautical units.
time (UTC)temp
F
wind
direction
speed
MPH
gust
MPH
rain 1hr
in
rain 24hr
in
rain mn
in
humidity
%
barometer
mb
20260510105518 61 34 4.0 7.0 0.00 0.04 0.04 82 991.8
20260510104519 61 59 1.0 3.0 0.00 0.04 0.04 82 991.9
20260510103520 61 43 4.0 6.0 0.00 0.04 0.04 82 991.9
20260510102516 61 53 3.0 7.0 0.00 0.04 0.04 82 991.9
20260510101517 60 39 4.0 8.0 0.00 0.04 0.04 82 991.8
20260510100518 60 47 5.0 8.0 0.00 0.04 0.04 83 992.0
20260510095519 60 42 3.0 5.0 0.00 0.04 0.04 84 992.0
20260510094515 59 33 5.0 8.0 0.00 0.04 0.04 84 991.9
20260510093516 59 44 4.0 7.0 0.00 0.04 0.04 84 992.0
20260510092517 58 24 4.0 7.0 0.00 0.04 0.04 84 991.9
20260510091518 58 43 4.0 9.0 0.00 0.04 0.04 85 991.9
20260510090519 58 56 2.0 5.0 0.00 0.04 0.04 87 991.9
20260510085515 57 37 5.0 8.0 0.00 0.04 0.04 87 991.8
20260510084536 56 27 4.0 8.0 0.00 0.04 0.04 88 991.7
20260510083517 56 40 4.0 8.0 0.00 0.04 0.04 89 991.6
20260510082518 56 31 3.0 5.0 0.00 0.04 0.04 89 991.7
20260510081519 55 44 2.0 4.0 0.00 0.04 0.04 90 991.9
20260510080515 55 55 0.0 3.0 0.01 0.04 0.04 91 992.0
20260510075516 55 18 1.0 2.0 0.01 0.04 0.04 91 992.1
20260510074518 54 21 0.0 1.0 0.01 0.04 0.04 91 991.8
20260510073519 54 21 1.0 3.0 0.01 0.04 0.04 91 991.7
20260510072515 54 47 2.0 4.0 0.01 0.04 0.04 92 991.5
20260510071536 54 332 1.0 2.0 0.02 0.04 0.04 92 991.3
20260510070517 54 227 1.0 3.0 0.03 0.03 0.03 91 991.4
20260510065519 53 7 2.0 6.0 0.03 0.03 0.03 90 991.1
20260510064520 53 49 1.0 5.0 0.03 0.03 0.03 89 991.1
20260510063556 53 40 7.0 13.0 0.03 0.03 0.03 88 990.9
20260510062517 54 35 9.0 16.0 0.03 0.03 0.03 87 991.0
20260510061518 55 45 7.0 13.0 0.02 0.02 0.02 83 991.4
20260510060519 56 28 5.0 9.0 0.00 0.00 0.00 78 991.3
20260510055520 56 40 5.0 9.0 0.00 0.00 0.00 78 991.3
20260510054516 56 33 5.0 8.0 0.00 0.00 0.00 77 991.4
20260510053517 56 52 3.0 7.0 0.00 0.00 0.00 77 991.5
20260510052518 56 37 4.0 7.0 0.00 0.00 0.00 77 991.6
20260510051519 56 21 3.0 5.0 0.00 0.00 0.00 77 991.7
20260510050520 56 39 4.0 6.0 0.00 0.00 0.00 76 991.7
20260510045516 56 46 1.0 5.0 0.00 0.00 0.00 75 991.6
20260510044518 56 35 6.0 9.0 0.00 0.00 0.00 75 991.4
20260510043519 56 33 4.0 7.0 0.00 0.00 0.00 75 991.4
20260510042520 56 15 4.0 7.0 0.00 0.00 0.00 75 991.5
20260510041541 56 38 4.0 8.0 0.00 0.00 0.00 75 991.5
20260510040517 56 38 4.0 7.0 0.00 0.00 0.00 76 991.6
20260510035518 56 35 4.0 8.0 0.00 0.00 0.00 77 991.6
20260510034539 57 25 3.0 6.0 0.00 0.00 0.00 76 991.8
20260510033520 57 32 3.0 5.0 0.00 0.00 0.00 74 991.8
20260510032516 57 27 2.0 5.0 0.00 0.00 0.00 74 991.9
20260510031517 57 35 3.0 7.0 0.00 0.00 0.00 74 992.0
20260510030518 57 29 3.0 6.0 0.00 0.00 0.00 75 992.1
20260510025518 57 38 3.0 6.0 0.00 0.00 0.00 76 992.2
20260510024519 58 26 3.0 5.0 0.00 0.00 0.00 75 992.1
20260510023515 58 34 4.0 7.0 0.00 0.00 0.00 75 992.1
20260510022517 58 36 3.0 5.0 0.00 0.00 0.00 75 992.1
20260510021518 58 46 3.0 6.0 0.00 0.00 0.00 76 992.3
20260510020519 58 31 2.0 6.0 0.00 0.00 0.00 75 992.3
20260510015520 58 27 2.0 6.0 0.00 0.00 0.00 75 992.4
20260510014556 58 20 3.0 6.0 0.00 0.00 0.00 75 992.4
20260510013517 58 26 3.0 5.0 0.00 0.00 0.00 75 992.5
20260510012538 59 29 3.0 7.0 0.00 0.00 0.00 75 992.5
20260510011519 59 33 3.0 7.0 0.00 0.00 0.00 75 992.7
20260510010520 59 26 3.0 6.0 0.00 0.00 0.00 75 992.8
20260510005521 59 27 3.0 4.0 0.00 0.00 0.00 76 992.9
20260510004557 59 26 3.0 8.0 0.00 0.00 0.00 75 993.1
20260510003518 59 34 3.0 6.0 0.00 0.00 0.00 75 993.3
20260510002519 59 32 4.0 8.0 0.00 0.00 0.00 76 993.4
20260510001520 59 31 2.0 6.0 0.00 0.00 0.00 77 993.4
20260510000537 58 23 2.0 4.0 0.00 0.00 0.00 79 993.6
20260509235518 58 16 2.0 3.0 0.00 0.00 0.00 80 993.8
20260509234519 57 28 2.0 8.0 0.00 0.00 0.00 83 993.8
20260509233540 55 8 1.0 3.0 0.00 0.00 0.00 89 993.8
20260509232516 54 357 0.0 2.0 0.00 0.00 0.00 92 993.9
20260509231518 54 0.0 0.0 0.00 0.00 0.00 92 994.0
20260509230519 54 343 0.0 3.0 0.00 0.00 0.00 93 994.0
20260509225520 54 0.0 0.0 0.00 0.00 0.00 93 994.1
20260509224516 54 0.0 0.0 0.00 0.00 0.00 92 994.0
20260509223518 54 0.0 0.0 0.00 0.00 0.00 92 994.1
20260509222519 54 0.0 0.0 0.00 0.00 0.00 92 994.1
20260509221520 54 0.0 0.0 0.00 0.00 0.00 91 994.1
20260509220516 55 0.0 0.0 0.00 0.00 0.00 91 994.0
20260509215517 55 0.0 0.0 0.00 0.00 0.00 91 994.0
20260509214518 55 0.0 0.0 0.00 0.00 0.00 91 994.1
20260509213519 55 0.0 0.0 0.00 0.00 0.00 90 994.1
20260509212515 55 0.0 0.0 0.00 0.00 0.00 90 994.1
20260509211537 56 0.0 0.0 0.00 0.00 0.00 89 994.2
20260509210538 56 0.0 0.0 0.00 0.00 0.00 89 994.2
20260509205539 57 0.0 0.0 0.00 0.00 0.00 88 994.1
20260509204515 57 0.0 0.0 0.00 0.00 0.00 87 993.9
20260509203517 57 0.0 0.0 0.00 0.00 0.00 86 993.9
20260509202518 58 0.0 0.0 0.00 0.00 0.00 85 993.9
20260509201519 59 0.0 0.0 0.00 0.00 0.00 85 993.9
20260509200515 59 0.0 0.0 0.00 0.00 0.00 84 993.9
20260509195536 60 0.0 0.0 0.00 0.00 0.00 83 993.8
20260509194517 61 0.0 0.0 0.00 0.00 0.00 82 993.8
20260509193519 62 0.0 0.0 0.00 0.00 0.00 79 993.7
20260509192515 63 0.0 0.0 0.00 0.00 0.00 78 993.6
20260509191516 64 0.0 0.0 0.00 0.00 0.00 75 993.6
20260509190517 65 0.0 0.0 0.00 0.00 0.00 73 993.5
20260509185518 67 0.0 0.0 0.00 0.00 0.00 71 993.4
20260509184515 68 0.0 0.0 0.00 0.00 0.00 67 993.3
20260509183536 69 0.0 0.0 0.00 0.00 0.00 65 993.3
20260509182517 70 28 2.0 5.0 0.00 0.00 0.00 61 993.2
20260509181518 71 31 3.0 5.0 0.00 0.00 0.00 59 993.1
20260509180514 71 25 3.0 6.0 0.00 0.00 0.00 58 993.0
20260509175516 71 40 4.0 8.0 0.00 0.00 0.00 57 993.1
20260509174517 72 33 3.0 7.0 0.00 0.00 0.00 56 993.1
20260509173518 72 42 3.0 6.0 0.00 0.00 0.00 56 993.1
20260509172529 73 39 6.0 12.0 0.00 0.00 0.00 55 993.2
20260509171516 73 36 4.0 8.0 0.00 0.00 0.00 53 993.3
20260509170517 73 123 1.0 5.0 0.00 0.00 0.00 53 993.3
20260509165518 73 26 4.0 7.0 0.00 0.00 0.00 53 993.4
20260509164519 73 26 3.0 9.0 0.00 0.00 0.00 53 993.5
20260509163520 73 40 5.0 11.0 0.00 0.00 0.00 53 993.5
20260509162516 74 46 4.0 10.0 0.00 0.00 0.00 53 993.5
20260509161518 73 25 3.0 5.0 0.00 0.00 0.00 55 993.5
20260509160519 73 50 4.0 8.0 0.00 0.00 0.00 55 993.6
20260509155520 73 46 3.0 7.0 0.00 0.00 0.00 54 993.7
20260509154516 74 106 1.0 5.0 0.00 0.00 0.00 51 993.7
20260509153538 74 266 1.0 5.0 0.00 0.00 0.00 52 993.8
20260509152519 75 120 2.0 9.0 0.00 0.00 0.00 50 994.0
20260509151520 75 99 3.0 6.0 0.00 0.00 0.00 51 994.0
20260509150516 76 187 3.0 8.0 0.00 0.00 0.00 51 994.2
20260509145537 75 103 3.0 7.0 0.00 0.00 0.00 52 994.3
20260509144518 74 158 4.0 10.0 0.00 0.00 0.00 54 994.4
20260509143520 74 53 5.0 11.0 0.00 0.00 0.00 53 994.2
20260509142516 73 47 4.0 10.0 0.00 0.00 0.00 55 994.3
20260509141517 75 92 4.0 10.0 0.00 0.00 0.00 53 994.3
20260509140518 74 176 3.0 6.0 0.00 0.00 0.00 50 994.2
20260509135519 74 60 3.0 12.0 0.00 0.00 0.00 50 994.2
20260509134515 74 199 2.0 5.0 0.00 0.00 0.00 51 994.2
20260509133517 74 161 4.0 10.0 0.00 0.00 0.00 51 994.3
20260509132538 74 114 4.0 9.0 0.00 0.00 0.00 53 994.5
20260509131519 73 33 4.0 10.0 0.00 0.00 0.00 54 994.5
20260509130520 73 35 5.0 10.0 0.00 0.00 0.00 55 994.5
20260509125516 73 37 3.0 10.0 0.00 0.00 0.00 54 994.5
20260509124518 73 88 3.0 8.0 0.00 0.00 0.00 54 994.6
20260509123519 74 153 3.0 9.0 0.00 0.00 0.00 54 994.7
20260509122540 73 119 2.0 5.0 0.00 0.00 0.00 56 994.8
20260509121516 72 37 5.0 13.0 0.00 0.00 0.00 57 994.9
20260509120517 72 62 2.0 7.0 0.00 0.00 0.00 57 995.1
20260509115518 71 29 5.0 9.0 0.00 0.00 0.00 59 995.1
20260509114539 71 92 2.0 5.0 0.00 0.00 0.00 60 995.2
20260509113515 71 92 3.0 8.0 0.00 0.00 0.00 61 995.4
20260509112517 70 106 3.0 8.0 0.00 0.00 0.00 60 995.5
20260509111518 70 180 3.0 8.0 0.00 0.00 0.00 61 995.6
20260509110519 70 144 2.0 6.0 0.00 0.00 0.00 62 995.7